"March 28 to April 27, 1994",,,,,,,,,,,,,,,
NOAA Ship Discoverer,,,,,,,,,,,,,,,
Group,JD_GMT,Date,Time,Latitude,Longitude,xCO2w_ppm,xCO2a_ppm,Pres_Equil_mB,Pres_sealevel_mB,EqTemp_C,SST(TSG)_C,Sal(TSG)_permil,fCO2w@SST_uatm,fCO2a_uatm,dfCO2_uatm
PMEL,32.125,1021994,3:00:00,32.024,-122.626,345.96,364.8,1022.11,1022.11,17.323,16.092,33.397,324.38,360.23,-35.84
PMEL,32.167,1021994,4:00:29,31.746,-122.579,346.84,364.09,1022.19,1022.19,17.128,16.059,33.385,327.47,359.58,-32.11
PMEL,32.208,1021994,4:59:31,31.467,-122.525,344.34,363.7,1022.54,1022.54,17.067,16.454,33.473,331.36,359.15,-27.79
PMEL,32.25,1021994,6:00:00,31.193,-122.479,342.97,363.53,1022.86,1022.86,16.712,15.928,33.333,327.95,359.31,-31.35
PMEL,32.292,1021994,7:00:29,30.912,-122.433,339.22,363.33,1022.95,1022.95,16.586,15.934,33.37,326.2,359.14,-32.94
PMEL,32.333,1021994,7:59:31,30.634,-122.382,341.97,363.47,1022.6,1022.6,16.649,15.938,33.366,327.91,359.15,-31.24
PMEL,32.375,1021994,9:00:00,30.363,-122.33,343.7,363.45,1022.78,1022.78,16.682,15.922,33.323,328.96,359.21,-30.25
PMEL,32.412,1021994,9:53:17,30.108,-122.285,349.9,363.61,1022.71,1022.71,17.924,17.055,33.528,332.99,358.88,-25.89
PMEL,32.458,1021994,10:59:31,29.845,-122.228,349.23,363.67,1022.42,1022.42,17.989,17.279,33.574,334.39,358.74,-24.35
PMEL,32.5,1021994,12:00:00,29.572,-122.174,347.97,363.71,1022.02,1022.02,17.677,17.133,33.551,335.42,358.7,-23.28
PMEL,32.542,1021994,13:00:29,29.309,-122.13,349.1,363.84,1022.03,1022.03,18.076,17.288,33.59,333.05,358.77,-25.72
PMEL,32.583,1021994,13:59:31,29.048,-122.079,349.24,363.77,1021.82,1021.82,17.945,17.014,33.498,331.22,358.73,-27.52
PMEL,32.625,1021994,15:00:00,28.791,-121.985,347.62,363.67,1021.84,1021.84,17.941,17.137,33.468,331.4,358.6,-27.2
PMEL,32.667,1021994,16:00:29,28.527,-121.89,347.98,363.87,1021.81,1021.81,17.82,17.113,33.443,333.09,358.79,-25.7
PMEL,32.708,1021994,16:59:31,28.27,-121.802,351.55,363.93,1021.25,1021.25,17.77,16.993,33.425,335.38,358.7,-23.32
PMEL,32.792,1021994,19:00:29,27.742,-121.624,348.62,364.52,1021.67,1021.67,18.122,17.206,33.455,330.73,359.35,-28.62
PMEL,32.833,1021994,19:59:31,27.483,-121.535,350.09,365.16,1021.12,1021.12,18.4,17.324,33.476,329.7,359.72,-30.02
PMEL,32.875,1021994,21:00:00,27.219,-121.44,350.97,364.89,1020.44,1020.44,18.22,17.365,33.507,333.36,359.21,-25.84
PMEL,32.917,1021994,22:00:29,26.964,-121.339,350.47,364.36,1019.18,1019.18,18.286,17.657,33.619,335.5,358.1,-22.61
PMEL,32.958,1021994,22:59:31,26.702,-121.254,352.61,363.93,1018.92,1018.92,18.387,17.572,33.567,334.89,357.62,-22.74
PMEL,33,2021994,0:00:00,26.439,-121.167,353.42,364.09,1019.09,1019.09,18.807,17.832,33.615,333.41,357.73,-24.32
PMEL,33.042,2021994,1:00:29,26.176,-121.08,353.36,364.03,1018.91,1018.91,18.557,17.962,33.631,338.55,357.55,-19
PMEL,33.083,2021994,1:59:31,25.914,-120.999,353.46,364.25,1018.69,1018.69,18.924,17.881,33.607,332.34,357.73,-25.39
PMEL,33.125,2021994,3:00:00,25.656,-120.909,353.55,363.93,1018.96,1018.96,19.181,18.312,33.726,334.78,357.31,-22.53
PMEL,33.167,2021994,4:00:29,25.394,-120.815,353.21,363.74,1019.61,1019.61,19.22,18.43,33.78,335.73,357.31,-21.58
PMEL,33.208,2021994,4:59:31,25.136,-120.728,352.56,363.77,1020.38,1020.38,18.615,18.191,33.685,340.6,357.71,-17.11
PMEL,33.25,2021994,6:00:00,24.885,-120.636,348.43,363.91,1020.14,1020.14,20.88,19.203,33.945,319.2,357.3,-38.1
PMEL,33.292,2021994,7:00:29,24.628,-120.54,349.24,363.9,1019.47,1019.47,20.717,19.904,34.18,331.02,356.72,-25.7
PMEL,33.333,2021994,7:59:31,24.375,-120.452,348.67,363.64,1018.98,1018.98,21.062,20.015,34.178,327.12,356.24,-29.12
PMEL,33.375,2021994,9:00:00,24.12,-120.374,351.35,363.64,1018.24,1018.24,21.04,20.289,34.24,333.3,355.84,-22.53
PMEL,33.412,2021994,9:53:17,23.868,-120.299,351.88,363.8,1017.84,1017.84,20.983,20.141,34.175,332.5,355.93,-23.43
PMEL,33.458,2021994,10:59:31,23.612,-120.218,352.33,363.83,1017.06,1017.06,20.837,19.981,34.133,332.54,355.75,-23.22
PMEL,33.5,2021994,12:00:00,23.337,-120.126,355.89,363.9,1015.44,1015.44,20.68,19.813,34.041,335.28,355.33,-20.05
PMEL,33.542,2021994,13:00:29,23.079,-120.035,356.79,364.05,1015.71,1015.71,20.835,19.929,33.97,335.62,355.52,-19.89
PMEL,33.583,2021994,13:59:31,22.825,-119.948,353.76,364.05,1015.42,1015.42,21.219,20.189,34.021,330.89,355.28,-24.39
PMEL,33.625,2021994,15:00:00,22.572,-119.867,356.62,364.26,1015.78,1015.78,21.186,20.372,34.011,336.57,355.52,-18.95
PMEL,33.667,2021994,16:00:29,22.315,-119.786,347.93,364.12,1016.33,1016.33,22.132,21.099,34.233,325.3,355.21,-29.91
PMEL,33.708,2021994,16:59:31,22.065,-119.705,350.06,363.91,1016.17,1016.17,22.017,21.206,34.291,330.18,354.89,-24.71
PMEL,33.75,2021994,18:00:00,21.815,-119.62,346.25,363.93,1015.81,1015.81,22.407,21.652,34.345,327.01,354.54,-27.53
PMEL,33.792,2021994,19:00:29,21.562,-119.534,347.52,363.67,1016.01,1016.01,23.577,22.627,34.486,325.24,353.82,-28.58
PMEL,33.833,2021994,19:59:31,21.306,-119.455,342.49,363.78,1014.84,1014.84,23.653,22.644,34.482,319.37,353.5,-34.13
PMEL,33.875,2021994,21:00:00,21.061,-119.371,343.69,363.7,1014.14,1014.14,23.967,23.237,34.495,323.62,352.83,-29.21
PMEL,34.167,3021994,4:00:29,19.297,-118.801,346.1,363.94,1014.54,1014.54,25.185,24.628,34.246,327.59,352.35,-24.76
PMEL,34.208,3021994,4:59:31,19.052,-118.717,347.71,364.13,1014.79,1014.79,25.448,24.802,34.255,327.91,352.52,-24.6
PMEL,34.25,3021994,6:00:00,18.804,-118.636,346.05,363.97,1015.03,1015.03,25.276,24.946,34.295,330.54,352.36,-21.81
PMEL,34.292,3021994,7:00:29,18.552,-118.557,346.75,363.6,1014.96,1014.96,25.658,25.141,34.257,328.6,351.84,-23.25
PMEL,34.333,3021994,7:59:31,18.307,-118.477,349.64,363.7,1014.69,1014.69,25.763,25.331,34.258,332.25,351.71,-19.46
PMEL,34.375,3021994,9:00:00,18.057,-118.396,347.24,363.75,1014.27,1014.27,25.506,25.09,34.286,330.18,351.78,-21.59
PMEL,34.412,3021994,9:53:17,17.821,-118.32,345.31,363.72,1013.76,1013.76,25.873,25.384,34.041,327.04,351.37,-24.33
PMEL,34.458,3021994,10:59:31,17.576,-118.244,346.48,363.76,1012.99,1012.99,25.839,25.457,33.973,329.28,351.09,-21.81
PMEL,34.5,3021994,12:00:00,17.306,-118.182,345.41,363.63,1012.9,1012.9,25.899,25.48,33.985,327.73,350.91,-23.18
PMEL,34.542,3021994,13:00:29,17.073,-118.096,352.38,363.62,1013.29,1013.29,25.791,25.432,34.16,335.32,351.07,-15.75
PMEL,34.583,3021994,13:59:31,16.832,-118.01,342.21,363.46,1013.75,1013.75,25.649,25.272,34.285,325.65,351.19,-25.54
PMEL,34.625,3021994,15:00:00,16.585,-117.929,339.07,363.57,1014.06,1014.06,25.935,25.421,33.983,320.88,351.31,-30.43
PMEL,34.667,3021994,16:00:29,16.337,-117.857,341.36,363.47,1014.82,1014.82,26.209,25.776,33.785,324.14,351.24,-27.1
PMEL,34.708,3021994,16:59:31,16.093,-117.788,341.55,363.46,1015.25,1015.25,26.165,25.81,33.757,325.47,351.37,-25.9
PMEL,34.75,3021994,18:00:00,15.877,-117.689,346.71,363.51,1015.24,1015.24,26.462,26.023,33.72,329.15,351.26,-22.11
PMEL,34.792,3021994,19:00:29,15.656,-117.569,344.96,363.48,1014.61,1014.61,26.519,26.298,33.737,329.99,350.82,-20.83
PMEL,34.833,3021994,19:59:31,15.432,-117.451,353.43,363.48,1013.8,1013.8,26.697,26.403,33.741,336.76,350.46,-13.7
PMEL,34.875,3021994,21:00:00,15.206,-117.347,354.32,363.55,1013.06,1013.06,26.811,26.584,33.829,338.14,350.13,-11.99
PMEL,34.917,3021994,22:00:29,14.98,-117.243,357.18,363.31,1011.95,1011.95,26.84,26.631,33.798,340.7,349.47,-8.77
PMEL,34.958,3021994,22:59:31,14.771,-117.146,355.73,363.54,1011.97,1011.97,26.872,26.662,33.811,339.27,349.68,-10.41
PMEL,35,4021994,0:00:00,14.554,-117.033,350.69,363.52,1012,1012,26.916,26.733,33.543,334.8,349.62,-14.82
PMEL,35.042,4021994,1:00:29,14.328,-116.914,350.83,363.54,1012.2,1012.2,26.948,26.796,33.408,335.37,349.66,-14.29
PMEL,35.083,4021994,1:59:31,14.102,-116.812,352.72,363.5,1012.87,1012.87,27.037,26.852,33.333,336.93,349.83,-12.9
PMEL,35.125,4021994,3:00:00,13.878,-116.698,348.9,363.38,1013.15,1013.15,27.029,26.91,33.3,334.22,349.77,-15.55
PMEL,35.167,4021994,4:00:29,13.648,-116.583,358.38,362.65,1014.07,1014.07,27.138,26.973,33.29,342.95,349.35,-6.4
PMEL,35.208,4021994,4:59:31,13.423,-116.478,362.98,362.52,1014.54,1014.54,27.192,27.073,33.393,348.1,349.32,-1.22
PMEL,35.25,4021994,6:00:00,13.192,-116.37,359.53,362.7,1014.75,1014.75,27.169,27.092,33.39,345.43,349.55,-4.13
PMEL,35.292,4021994,7:00:29,12.959,-116.257,360.29,362.42,1014.55,1014.55,27.214,27.105,33.413,345.64,349.21,-3.56
PMEL,35.333,4021994,7:59:31,12.732,-116.144,359.94,362.5,1014.09,1014.09,27.259,27.186,33.545,345.58,349.06,-3.48
PMEL,35.375,4021994,9:00:00,12.507,-116.033,359.71,362.37,1013.52,1013.52,27.33,27.259,33.565,345.13,348.67,-3.55
PMEL,35.412,4021994,9:53:17,12.297,-115.924,359.31,362.2,1012.81,1012.81,27.309,27.253,33.558,344.71,348.27,-3.55
PMEL,35.458,4021994,10:59:31,12.071,-115.814,361.05,362.32,1012.21,1012.21,27.332,27.28,33.571,346.19,348.15,-1.96
PMEL,35.5,4021994,12:00:00,11.831,-115.696,360.27,362.7,1012.04,1012.04,27.362,27.307,33.594,345.32,348.43,-3.11
PMEL,35.542,4021994,13:00:29,11.604,-115.587,360.06,362.63,1012.67,1012.67,27.344,27.308,33.571,345.61,348.58,-2.97
PMEL,35.583,4021994,13:59:31,11.374,-115.477,360.65,362.62,1013.34,1013.34,27.364,27.319,33.591,346.28,348.81,-2.53
PMEL,35.625,4021994,15:00:00,11.143,-115.366,359.76,362.99,1013.92,1013.92,27.398,27.354,33.575,345.63,349.35,-3.71
PMEL,35.667,4021994,16:00:29,10.911,-115.251,360.36,362.89,1014.62,1014.62,27.361,27.333,33.492,346.68,349.51,-2.83
PMEL,35.708,4021994,16:59:31,10.675,-115.138,358.69,363.19,1014.99,1014.99,27.337,27.303,33.403,345.15,349.96,-4.81
PMEL,35.75,4021994,18:00:00,10.446,-115.028,365.04,363.46,1015.2,1015.2,27.435,27.365,33.619,350.78,350.25,0.53
PMEL,35.792,4021994,19:00:29,10.214,-114.92,360.92,363.74,1014.45,1014.45,27.489,27.428,33.733,346.65,350.2,-3.55
PMEL,35.833,4021994,19:59:31,9.986,-114.806,362.66,363.87,1013.49,1013.49,27.411,27.352,33.498,348.06,350.04,-1.98
PMEL,35.875,4021994,21:00:00,9.758,-114.696,359.3,364.14,1012.47,1012.47,27.612,27.507,33.641,343.73,349.82,-6.09
PMEL,35.917,4021994,22:00:29,9.526,-114.586,360.45,364.34,1011.35,1011.35,27.574,27.583,33.711,345.96,349.56,-3.61
PMEL,35.958,4021994,22:59:31,9.301,-114.472,358.03,364.51,1010.72,1010.72,27.651,27.643,33.786,343.12,349.45,-6.33
PMEL,36,5021994,0:00:00,9.077,-114.359,356.43,364.64,1010.57,1010.57,27.601,27.639,33.789,342.18,349.53,-7.34
PMEL,36.042,5021994,1:00:29,8.851,-114.25,357.75,364.65,1010.83,1010.83,27.585,27.57,33.831,342.86,349.68,-6.82
PMEL,36.083,5021994,1:59:31,8.627,-114.147,356.45,364.83,1011.5,1011.5,27.617,27.618,33.904,342.03,350.05,-8.03
PMEL,36.125,5021994,3:00:00,8.397,-114.033,354.37,364.59,1011.96,1011.96,27.58,27.603,33.891,340.51,350,-9.49
PMEL,36.167,5021994,4:00:29,8.169,-113.924,354.78,364.51,1012.43,1012.43,27.584,27.597,33.885,340.94,350.1,-9.16
PMEL,36.208,5021994,4:59:31,7.943,-113.819,354.97,364.22,1013.03,1013.03,27.594,27.603,33.888,341.26,350.03,-8.77
PMEL,36.25,5021994,6:00:00,7.711,-113.707,355.37,363.95,1012.79,1012.79,27.616,27.633,33.915,341.64,349.66,-8.02
PMEL,36.292,5021994,7:00:29,7.477,-113.594,353.13,363.26,1012.4,1012.4,27.586,27.62,33.862,339.6,348.86,-9.26
PMEL,36.333,5021994,7:59:31,7.24,-113.486,360.08,363.19,1011.75,1011.75,27.589,27.594,33.94,345.68,348.59,-2.92
PMEL,36.375,5021994,9:00:00,7.001,-113.371,365.41,363.27,1010.93,1010.93,27.583,27.59,34.252,350.53,348.38,2.16
PMEL,36.412,5021994,9:53:17,6.777,-113.255,364.19,363.2,1010.07,1010.07,27.57,27.586,34.28,349.19,348,1.19
PMEL,36.458,5021994,10:59:31,6.535,-113.137,363.59,363.16,1009.67,1009.67,27.607,27.616,34.277,348.34,347.81,0.52
PMEL,36.5,5021994,12:00:00,6.276,-113.025,370.22,362.9,1009.53,1009.53,27.52,27.573,34.325,355.31,347.54,7.77
PMEL,36.542,5021994,13:00:29,6.034,-112.908,370.96,363,1010.12,1010.12,27.429,27.432,34.294,355.63,347.95,7.68
PMEL,36.583,5021994,13:59:31,5.793,-112.782,371.66,362.79,1010.54,1010.54,27.293,27.268,34.249,356.16,348.02,8.15
PMEL,36.625,5021994,15:00:00,5.552,-112.662,382.1,362.74,1011.23,1011.23,26.836,26.906,34.111,368.11,348.47,19.63
PMEL,36.667,5021994,16:00:29,5.301,-112.541,372.49,362.59,1011.93,1011.93,26.887,26.665,33.952,355.09,348.75,6.34
PMEL,36.708,5021994,16:59:31,5.094,-112.454,372.37,362.9,1012.21,1012.21,26.974,26.801,33.905,355.68,349.05,6.64
PMEL,36.75,5021994,18:00:00,4.909,-112.38,372.16,362.81,1011.95,1011.95,26.993,26.791,33.86,354.99,348.88,6.1
PMEL,36.792,5021994,19:00:29,4.671,-112.262,375.3,362.66,1011.03,1011.03,27.073,26.896,33.919,357.92,348.34,9.58
PMEL,36.833,5021994,19:59:31,4.44,-112.154,376.85,362.62,1010.13,1010.13,27.13,26.982,33.917,359.42,347.91,11.51
PMEL,36.875,5021994,21:00:00,4.211,-112.04,376.68,362.58,1009.2,1009.2,27.064,26.937,33.939,359.25,347.58,11.67
PMEL,36.917,5021994,22:00:29,3.977,-111.927,378.68,362.65,1008.27,1008.27,27.166,27.008,33.945,360.32,347.26,13.06
PMEL,36.958,5021994,22:59:31,3.751,-111.818,380.29,362.56,1007.71,1007.71,27.141,27.041,33.937,362.46,346.95,15.51
PMEL,37,6021994,0:00:00,3.531,-111.707,383.49,362.47,1007.53,1007.53,27.295,27.09,33.919,363.88,346.77,17.11
PMEL,37.042,6021994,1:00:29,3.309,-111.597,385.25,362.31,1008.06,1008.06,27.152,27.075,33.912,367.63,346.81,20.82
PMEL,37.083,6021994,1:59:31,3.087,-111.489,379.53,362.62,1008.84,1008.84,27.02,26.914,33.888,362.16,347.51,14.66
PMEL,37.125,6021994,3:00:00,2.864,-111.385,376,362.42,1009.71,1009.71,27.106,26.959,33.806,358.48,347.59,10.9
PMEL,37.167,6021994,4:00:29,2.635,-111.28,383.25,362.16,1010.33,1010.33,27.112,26.973,33.847,365.73,347.55,18.18
PMEL,37.208,6021994,4:59:31,2.408,-111.177,386.07,362.02,1010.77,1010.77,27.097,27.027,33.909,369.59,347.53,22.06
PMEL,37.25,6021994,6:00:00,2.187,-111.072,381.11,361.79,1010.77,1010.77,27.154,27.052,33.949,364.35,347.29,17.06
PMEL,37.292,6021994,7:00:29,1.962,-110.957,375.72,361.56,1010.58,1010.58,27.114,26.998,33.929,358.96,347.04,11.92
PMEL,37.333,6021994,7:59:31,1.738,-110.846,373.34,361.53,1009.76,1009.76,26.991,26.892,33.867,356.72,346.79,9.92
PMEL,37.375,6021994,9:00:00,1.514,-110.74,372.58,361.6,1009.01,1009.01,26.905,26.779,33.865,355.39,346.68,8.71
PMEL,37.412,6021994,9:53:17,1.302,-110.636,371.01,361.53,1008.27,1008.27,26.837,26.701,33.834,353.56,346.4,7.15
PMEL,37.458,6021994,10:59:31,1.082,-110.527,372.26,361.69,1008.2,1008.2,26.841,26.651,33.786,353.98,346.57,7.42
PMEL,37.5,6021994,12:00:00,0.849,-110.412,378.21,361.47,1008.32,1008.32,26.647,26.519,33.808,360.67,346.49,14.18
PMEL,37.542,6021994,13:00:29,0.63,-110.302,383.1,361.33,1008.95,1008.95,26.456,26.239,33.878,364.47,346.78,17.69
PMEL,37.583,6021994,13:59:31,0.42,-110.189,392.48,361.35,1009.65,1009.65,26.112,25.884,33.964,373.76,347.29,26.47
PMEL,37.625,6021994,15:00:00,0.196,-110.084,402.41,361.38,1010.66,1010.66,25.797,25.512,34.052,383.01,347.92,35.09
PMEL,37.667,6021994,16:00:29,-0.024,-109.977,430.76,361.3,1011.25,1011.25,24.896,24.56,34.271,410.12,348.67,61.45
PMEL,37.708,6021994,16:59:31,-0.231,-109.849,440.54,361.31,1011.2,1011.2,24.494,24.02,34.41,417.48,349,68.48
PMEL,37.75,6021994,18:00:00,-0.417,-109.733,442.82,361.29,1010.98,1010.98,24.53,23.85,34.476,416.21,349,67.21
PMEL,37.792,6021994,19:00:29,-0.449,-109.737,443.98,361.32,1010.36,1010.36,24.552,23.88,34.487,417.14,348.8,68.34
PMEL,37.833,6021994,19:59:31,-0.463,-109.753,445.02,361.48,1009.69,1009.69,24.609,23.94,34.485,417.86,348.68,69.18
PMEL,37.875,6021994,21:00:00,-0.559,-109.714,458.43,361.59,1008.72,1008.72,24.251,23.68,34.547,431.91,348.6,83.31
PMEL,37.917,6021994,22:00:29,-0.789,-109.569,465.45,361.64,1007.95,1007.95,24.079,23.36,34.656,435.82,348.56,87.26
PMEL,37.958,6021994,22:59:31,-1.02,-109.417,472.02,361.56,1007.37,1007.37,24.415,23.468,34.69,437.64,348.22,89.42
PMEL,38,7021994,0:00:00,-1.245,-109.274,472.07,361.39,1007.36,1007.36,24.698,23.997,34.656,441.63,347.73,93.9
PMEL,38.042,7021994,1:00:29,-1.467,-109.131,473.33,361.44,1007.65,1007.65,25.171,24.444,34.601,442.15,347.61,94.54
PMEL,38.083,7021994,1:59:31,-1.679,-108.993,493.74,361.46,1008.37,1008.37,25.314,24.758,34.628,464.49,347.69,116.8
PMEL,38.125,7021994,3:00:00,-1.888,-108.851,503.52,361.48,1008.84,1008.84,25.46,24.913,34.63,473.98,347.78,126.2
PMEL,38.167,7021994,4:00:29,-2.104,-108.704,523.47,361.39,1009.55,1009.55,25.61,25.087,34.88,493.44,347.83,145.61
PMEL,38.208,7021994,4:59:31,-2.317,-108.568,522.91,361.13,1009.98,1009.98,25.687,25.209,35.02,493.91,347.65,146.26
PMEL,38.25,7021994,6:00:00,-2.523,-108.438,516.6,361.14,1010.17,1010.17,25.831,25.395,34.985,488.69,347.6,141.09
PMEL,38.292,7021994,7:00:29,-2.73,-108.296,510.96,361.04,1009.68,1009.68,25.973,25.556,34.986,483.35,347.23,136.12
PMEL,38.333,7021994,7:59:31,-2.932,-108.165,500.93,360.99,1008.92,1008.92,26.181,25.78,35.005,473.56,346.76,126.81
PMEL,38.375,7021994,9:00:00,-3.139,-108.039,495.93,360.9,1007.98,1007.98,26.274,25.935,35.024,469.41,346.24,123.17
PMEL,38.412,7021994,9:53:17,-3.335,-107.914,490.06,360.85,1007.44,1007.44,26.317,25.991,35.02,463.78,345.96,117.82
PMEL,38.458,7021994,10:59:31,-3.535,-107.787,499.16,360.86,1007.39,1007.39,26.257,25.98,35.044,473.3,345.96,127.34
PMEL,38.5,7021994,12:00:00,-3.748,-107.655,493.05,360.89,1007.49,1007.49,26.261,25.93,35.089,466.6,346.06,120.54
PMEL,38.542,7021994,13:00:29,-3.949,-107.523,484.99,360.8,1008.07,1008.07,26.233,25.935,35.146,459.83,346.17,113.65
PMEL,38.583,7021994,13:59:31,-4.15,-107.393,478.42,360.71,1008.77,1008.77,26.194,25.88,35.172,453.69,346.37,107.31
PMEL,38.625,7021994,15:00:00,-4.35,-107.261,484.57,360.75,1009.71,1009.71,26.135,25.779,35.162,459.28,346.81,112.46
PMEL,38.667,7021994,16:00:29,-4.551,-107.125,483.82,360.87,1010.35,1010.35,26.141,25.777,35.16,458.72,347.16,111.56
PMEL,38.708,7021994,16:59:31,-4.753,-106.986,481.75,360.62,1010.44,1010.44,26.188,25.834,35.158,456.94,346.91,110.03
PMEL,38.75,7021994,18:00:00,-4.959,-106.854,473.56,360.53,1010.52,1010.52,26.153,25.86,35.134,450.27,346.83,103.44
PMEL,38.792,7021994,19:00:29,-5.168,-107.125,475.56,360.67,1010.22,1010.22,26.208,25.879,35.116,451.37,346.85,104.51
PMEL,38.833,7021994,19:59:31,-5.377,-106.588,481.33,360.85,1009.61,1009.61,26.326,25.967,35.131,455.97,346.74,109.22
PMEL,38.875,7021994,21:00:00,-5.544,-106.457,483.82,360.69,1008.64,1008.64,26.345,26.004,35.129,458.16,346.22,111.94
PMEL,38.917,7021994,22:00:29,-5.79,-106.316,486.53,360.91,1007.99,1007.99,26.403,26.08,35.15,460.69,346.15,114.53
PMEL,38.958,7021994,22:59:31,-5.997,-106.177,481.83,360.75,1007.49,1007.49,26.458,26.121,35.138,455.71,345.8,109.91
PMEL,39,8021994,0:00:00,-6.206,-106.041,469.71,360.9,1007.58,1007.58,26.451,26.111,35.038,444.21,345.98,98.24
PMEL,39.042,8021994,1:00:29,-6.418,-105.904,466.77,361.05,1008.21,1008.21,26.4,26.128,35.048,442.92,346.33,96.59
PMEL,39.083,8021994,1:59:31,-6.623,-105.771,455.61,361.03,1009.09,1009.09,26.381,26.107,35.082,432.68,346.64,86.04
PMEL,39.125,8021994,3:00:00,-6.837,-105.634,458.61,361.04,1009.8,1009.8,26.35,26.053,35.12,435.5,346.94,88.56
PMEL,39.167,8021994,4:00:29,-7.049,-105.49,445.64,360.81,1010.33,1010.33,26.338,26.052,35.179,423.6,346.9,76.69
PMEL,39.208,8021994,4:59:31,-7.252,-105.35,444.59,360.84,1010.9,1010.9,26.339,26.039,35.188,422.6,347.15,75.46
PMEL,39.25,8021994,6:00:00,-7.462,-105.214,443.33,360.56,1011.23,1011.23,26.308,26.024,35.217,421.83,347,74.83
PMEL,39.292,8021994,7:00:29,-7.673,-105.077,448.45,360.53,1011.03,1011.03,26.136,25.882,35.256,427.26,347,80.26
PMEL,39.333,8021994,7:59:31,-7.878,-104.945,448.98,360.44,1010.36,1010.36,26.064,25.731,35.228,426.24,346.77,79.47
PMEL,39.375,8021994,9:00:00,-8.092,-104.806,442.42,360.37,1009.59,1009.59,26.013,25.65,35.282,419.26,346.49,72.77
PMEL,39.412,8021994,9:53:17,-8.293,-104.675,440.84,360.4,1009,1009,25.984,25.631,35.333,417.67,346.32,71.35
PMEL,39.458,8021994,10:59:31,-8.508,-104.536,441.21,360.32,1009.08,1009.08,25.945,25.592,35.332,418.1,346.3,71.8
PMEL,39.5,8021994,12:00:00,-8.736,-104.382,437.66,360.22,1009.29,1009.29,25.873,25.509,35.339,414.7,346.33,68.36
PMEL,39.542,8021994,13:00:29,-8.952,-104.24,435.64,360.35,1010.17,1010.17,25.83,25.446,35.36,412.86,346.81,66.05
PMEL,39.583,8021994,13:59:31,-9.164,-104.095,436.8,360.37,1010.8,1010.8,25.743,25.351,35.368,414.18,347.12,67.06
PMEL,39.625,8021994,15:00:00,-9.382,-103.955,440.59,360.45,1011.59,1011.59,25.67,25.252,35.401,417.74,347.54,70.2
PMEL,39.667,8021994,16:00:29,-9.606,-103.818,431.19,360.36,1011.97,1011.97,25.733,25.281,35.419,408.41,347.57,60.85
PMEL,39.708,8021994,16:59:31,-9.82,-103.677,422.38,360.46,1012.16,1012.16,25.71,25.295,35.474,400.71,347.72,52.99
PMEL,39.75,8021994,18:00:00,-10.03,-103.534,399.51,360.38,1012.09,1012.09,25.579,25.173,35.597,379.19,347.7,31.49
PMEL,39.792,8021994,19:00:29,-10.249,-103.392,404.4,360.46,1011.55,1011.55,25.572,25.056,35.669,382.02,347.67,34.36
PMEL,39.833,8021994,19:59:31,-10.464,-103.257,409.58,360.38,1010.87,1010.87,25.651,25.153,35.648,386.87,347.28,39.59
PMEL,39.875,8021994,21:00:00,-10.674,-103.12,419.88,360.53,1010.34,1010.34,25.718,25.256,35.585,396.88,347.18,49.71
PMEL,39.917,8021994,22:00:29,-10.889,-102.979,417.43,361.32,1009.9,1009.9,25.704,25.276,35.567,394.92,347.76,47.16
PMEL,39.958,8021994,22:59:31,-11.095,-102.838,404.98,360.99,1009.5,1009.5,25.431,25.052,35.639,383.88,347.45,36.42
PMEL,40,9021994,0:00:00,-11.307,-102.698,401.84,360.8,1009.75,1009.75,25.325,24.799,35.674,378.93,347.52,31.41
PMEL,40.042,9021994,1:00:29,-11.525,-102.563,406.12,360.99,1010.57,1010.57,25.317,24.825,35.676,383.78,347.98,35.8
PMEL,40.083,9021994,1:59:31,-11.684,-102.461,399.45,360.74,1011.28,1011.28,25.25,24.768,35.661,377.94,348.02,29.92
PMEL,87.333,28031994,7:59:31,-26.988,-109.22,373.84,358.21,1017.6,1017.6,24.526,24.414,35.826,361.56,348.02,13.54
PMEL,87.375,28031994,9:00:00,-26.875,-108.71,379.84,358.21,1017.1,1017.1,24.743,24.527,35.976,365.56,347.78,17.78
PMEL,87.417,28031994,10:00:29,-26.811,-108.44,380.18,358.35,1017,1017,24.738,24.65,35.95,367.67,347.8,19.88
PMEL,87.458,28031994,10:59:31,-26.742,-108.17,380.97,358.02,1016.4,1016.4,24.682,24.543,35.99,367.53,347.33,20.19
PMEL,87.5,28031994,12:00:00,-26.673,-107.88,379.83,358.16,1016.5,1016.5,24.668,24.524,35.984,366.4,347.52,18.88
PMEL,87.542,28031994,13:00:29,-26.611,-107.59,381.15,358.05,1017,1017,24.624,24.447,35.96,367.42,347.63,19.79
PMEL,87.583,28031994,13:59:31,-26.544,-107.32,383.7,358.05,1017.3,1017.3,24.556,24.421,35.915,370.63,347.76,22.87
PMEL,87.625,28031994,15:00:00,-26.475,-107.04,384.59,358.08,1017.7,1017.7,24.54,24.371,35.836,371.17,347.96,23.21
PMEL,87.667,28031994,16:00:29,-26.41,-106.76,388.11,358.16,1018.3,1018.3,24.638,24.441,35.849,374.32,348.2,26.12
PMEL,87.708,28031994,16:59:31,-26.347,-106.48,386.24,358.24,1018.4,1018.4,24.763,24.555,35.938,372.32,348.24,24.07
PMEL,87.75,28031994,18:00:00,-26.284,-106.21,387.14,358.32,1018.1,1018.1,24.951,24.794,36.186,373.69,348.07,25.62
PMEL,87.792,28031994,19:00:29,-26.213,-105.93,387.04,358.4,1017.5,1017.5,24.983,24.832,36.262,373.42,347.91,25.52
PMEL,87.833,28031994,19:59:31,-26.148,-105.69,387.56,358.47,1016.4,1016.4,24.891,24.772,36.28,374.04,347.64,26.4
PMEL,87.875,28031994,21:00:00,-26.073,-105.38,390.17,358.55,1015.7,1015.7,24.861,24.718,36.309,375.96,347.5,28.46
PMEL,87.917,28031994,22:00:29,-26.011,-105.12,390.87,358.63,1015.2,1015.2,24.91,24.726,36.288,375.81,347.39,28.42
PMEL,87.958,28031994,22:59:31,-25.946,-104.84,388.83,358.71,1015,1015,24.621,24.536,36.19,375.41,347.52,27.89
PMEL,88,29031994,0:00:00,-25.884,-104.58,389.91,358.79,1015.1,1015.1,24.694,24.552,36.175,375.61,347.62,27.99
PMEL,88.5,29031994,12:00:00,-24.984,-103,384.39,358.86,1015.2,1015.2,24.638,24.5,36.1,370.42,347.76,22.66
PMEL,88.542,29031994,13:00:29,-24.994,-103,379.67,358.94,1015.4,1015.4,24.622,24.49,36.103,366.04,347.91,18.13
PMEL,88.583,29031994,13:59:31,-24.997,-103,391.34,359.02,1015.7,1015.7,24.63,24.477,36.102,377.09,348.1,28.99
PMEL,88.625,29031994,15:00:00,-24.831,-103,398.77,359.96,1016.2,1016.2,24.671,24.508,36.089,384.28,349.17,35.1
PMEL,88.667,29031994,16:00:29,-24.586,-103,398.34,360.07,1016.8,1016.8,24.728,24.521,36.094,383.4,349.48,33.92
PMEL,88.708,29031994,16:59:31,-24.492,-103,399.55,360.15,1017,1017,24.78,24.588,36.114,384.83,349.59,35.25